Weather Roundup
Issued by NWS

Home | Current Version | Previous Version | Text Only | Print | Product List | Glossary On
Versions: 1 2 3 4 5 6 7 8 9 10 11 12 13 14 15 16 17 18 19 20 21 22 23 24 25 26 27 28 29 30 31 32 33 34 35 36 37 38 39 40 41 42 43 44 45 46 47 48 49 50
000
NZUS93 KARX 291610
HRRWXR

CURRENT HOURLY OBSERVATIONS ACROSS
MUCH OF THE UPPER MISSISSIPPI VALLEY
NATIONAL WEATHER SERVICE LA CROSSE WI
1100 AM CDT MON SEP 29 2014


...SOUTHEAST MINNESOTA...


CITY           SKY/WX    TMP DP  RH WIND       PRES   REMARKS
ROCHESTER      CLOUDY    61  59  93 N9        30.08S FOG
ROCHESTER/MAYO CLOUDY    58  57  95 N7        30.08R
WINONA         CLOUDY    55  52  88 N6        30.08R
AUSTIN         CLOUDY    61  59  94 N6        30.07R FOG
ALBERT LEA     CLOUDY    63  61  94 N8        30.08S FOG
DODGE CENTER   CLOUDY    57  57 100 N12       30.09R FOG
PRESTON        CLOUDY    60  58  93 N7        30.07S FOG
OWATONNA       CLOUDY    57  54  88 N12       30.10R
FARIBAULT      CLOUDY    63  48  59 N12       30.11S
$$

...ELSEWHERE IN MINNESOTA...


CITY           SKY/WX    TMP DP  RH WIND       PRES   REMARKS
MINNEAPOLIS    PTSUNNY   51  48  89 NE14      30.14R
INTNL FALLS    CLOUDY    42  39  89 NE7       30.27S
DULUTH         DRIZZLE   47  42  83 E9        30.21S
RED WING       CLOUDY    55  48  76 NE7       30.12R
REDWOOD FALLS  CLOUDY    59  53  80 NE6       30.13R
MANKATO        CLOUDY    59  50  72 NE12      30.10S
WORTHINGTON    CLOUDY    57  54  88 NE9       30.12S
FAIRMONT       CLOUDY    59  55  88 N8        30.10R
$$

...SOUTHWEST WISCONSIN...


CITY           SKY/WX    TMP DP  RH WIND       PRES   REMARKS
LA CROSSE      CLOUDY    65  58  78 N12       30.05R
PRAIRIE DU CHI SUNNY     66  65  96 CALM      30.03F
BOSCOBEL       SUNNY     73  60  63 SW5       30.03F
LONE ROCK      SUNNY     75  58  55 W7        30.02F
PLATTEVILLE    SUNNY     75  60  58 W6        30.05F
FORT MC COY    PTSUNNY   63  56  78 N12       30.06R
CAMP DOUGLAS   PTSUNNY   66  66 100 NW13      30.03R
VIROQUA        FAIR      71  58  62 NW5       30.04S
WIS DELLS      MOSUNNY   74  56  52 W7        30.02S
$$

...ELSEWHERE IN WISCONSIN...


CITY           SKY/WX    TMP DP  RH WIND       PRES   REMARKS
MILWAUKEE      MOSUNNY   78  58  49 W7        30.00F
MADISON        MOSUNNY   77  58  51 VRB7      30.02S
GREEN BAY      CLOUDY    59  57  93 N15G21    30.02R FOG
EAU CLAIRE     CLOUDY    51  44  77 NE14      30.11S
BLACK RVR FLS  CLOUDY    57  54  91 N6        30.07R
MEDFORD        LGT RAIN  46  44  93 N12G17    30.09R
WAUSAU         LGT RAIN  50  48  93 N10       30.06R
WIS RAPIDS     CLOUDY    60  54  80 N13       30.05R
MARSHFIELD     CLOUDY    54  47  77 N13       30.07R
RICE LAKE      CLOUDY    52  45  77 N20       30.16S
$$

...NORTHEAST IOWA...


CITY           SKY/WX    TMP DP  RH WIND       PRES   REMARKS
DECORAH        SUNNY     70  59  68 NW3       30.04S
MASON CITY     MOSUNNY   66  60  81 N8        30.08S
CHARLES CITY   SUNNY     72  59  64 SW6       30.06S
OELWEIN        SUNNY     73  59  60 W8        30.06F
$$

...ELSEWHERE IN IOWA...


CITY           SKY/WX    TMP DP  RH WIND       PRES   REMARKS
DES MOINES     MOSUNNY   75  60  59 VRB5      30.06F
IOWA CITY      SUNNY     76  62  62 VRB3      30.07S
FORT DODGE     PTSUNNY   64  57  77 N5        30.09R
$$

...NORTHERN ILLINOIS...


CITY           SKY/WX    TMP DP  RH WIND       PRES   REMARKS
CHICAGO-OHARE  SUNNY     74  56  53 W8        30.02F
CHICAGO-MIDWAY SUNNY     75  58  55 SW5       30.03F
MOLINE         SUNNY     77  60  55 VRB5      30.05F
ROCKFORD       MOSUNNY   77  60  55 NW5       30.05S
PEORIA         SUNNY     78  57  48 SW5       30.06F
$$

NOTE: "FAIR" INDICATES FEW OR NO CLOUDS BELOW 12,000 FEET WITH NO
SIGNIFICANT WEATHER AND/OR OBSTRUCTIONS TO VISIBILITY. WIND
SPEEDS ARE IN MILES-PER-HOUR.



USA.gov is the U.S. government's official web portal to all federal, state and local government web resources and services.